[[{"header":{"parameterUnit":"m.s-1","parameterCategory":1,"la1":30.2991,"la2":30.254,"lo1":-89.0895,"lo2":-89.0444,"dy":0.0017,"dx":0.0017,"nx":28,"ny":28,"refTime":"2025-12-15T03:00:00:Z","depth":0,"parameterNumber":2,"parameterNumberName":"U-component_of_WINDS"},"data":[0,0,0,0,0,0,0,0,0,0,0,0,0,0,0,0,0,0,0,0,0,0,0,0,0,0,0,0,0,0,0,0,0,0,0,0,0,0,0,0,0,0,0,0,0,0,0,0,0,0,0,0,0,0,0,0,0,0,-3.1776,-3.1776,0,-3.1811,-3.1811,-3.1811,-3.1735,-3.1732,-3.173,-3.1728,-3.1765,-3.1768,-3.1771,0,0,0,0,0,0,0,0,0,0,0,0,0,-3.1644,-3.1646,-3.1775,-3.1776,-3.1776,-3.1811,-3.1811,-3.1811,-3.1735,-3.1732,-3.1729,-3.1726,-3.1764,-3.1768,-3.1772,0,0,0,0,0,0,0,0,0,0,0,0,0,-3.1692,-3.1647,-3.1775,-3.1742,-3.174,-3.181,-3.1811,-3.1812,-3.1736,-3.1732,-3.1728,-3.1725,-3.1763,-3.1767,-3.1772,-3.1877,0,0,-3.1787,-3.179,0,0,0,0,0,0,0,0,-3.1689,-3.1697,-3.1747,-3.1745,-3.1742,-3.1764,-3.1778,-3.1834,-3.1737,-3.1737,-3.1728,-3.1723,-3.1768,-3.1772,-3.1787,-3.1879,-3.188,-3.1788,-3.1791,-3.1793,-3.1794,0,0,0,0,0,0,0,-3.1686,-3.1695,-3.1789,-3.1748,-3.1745,-3.1726,-3.1729,-3.1788,-3.1773,-3.1737,-3.1732,-3.1737,-3.1766,-3.1782,-3.1787,-3.1881,-3.1788,-3.1792,-3.1795,-3.1797,-3.2061,-3.2065,0,0,0,0,0,0,-3.1687,-3.1693,-3.1788,-3.179,-3.1706,-3.1732,-3.1735,-3.1761,-3.1772,-3.177,-3.174,-3.1733,-3.1776,-3.1782,-3.1788,-3.1913,-3.1793,-3.1798,-3.18,-3.2057,-3.2062,-3.2066,0,0,0,0,0,0,-3.1684,-3.1696,-3.1787,-3.174,-3.175,-3.1738,-3.1768,-3.1764,-3.178,-3.1774,-3.1771,-3.176,-3.1773,-3.1781,-3.1856,-3.1913,-3.18,-3.1804,-3.2052,-3.2059,-3.2064,-3.2162,0,0,0,0,0,0,-3.1681,-3.1696,-3.1735,-3.1742,-3.1753,-3.1854,-3.1771,-3.1767,-3.1789,-3.178,-3.1792,-3.179,-3.1771,-3.1849,-3.1861,-3.1918,-3.1808,-3.2047,-3.2055,-3.2062,-3.2153,-3.217,-3.2185,0,0,0,0,0,-3.1676,-3.1761,-3.1738,-3.1749,-3.1802,-3.1857,-3.1864,-3.1839,-3.1794,-3.1833,-3.183,-3.179,-3.1904,-3.1857,-3.187,-3.1929,-3.2043,-3.2053,-3.2062,-3.2146,-3.2167,-3.2184,0,0,0,0,0,0,-3.1762,-3.1762,-3.1735,-3.1825,-3.1841,-3.1844,-3.1894,-3.1862,-3.1892,-3.1883,-3.1851,-3.1855,-3.1935,-3.1939,-3.1886,-3.2031,-3.1966,-3.1978,-3.2026,-3.2046,-3.2061,-3.2059,-3.1812,0,0,0,0,0,-3.1792,-3.1836,-3.1833,-3.1912,-3.1922,-3.1906,-3.1929,-3.1909,-3.1925,-3.1932,-3.1934,-3.1952,-3.1991,-3.2018,-3.2055,-3.2153,-3.2155,-3.22,-3.2216,-3.2229,-3.224,-3.2293,-3.2314,-3.2096,-3.2096,-3.2096,0,0,-3.1853,-3.1858,-3.1888,-3.1929,-3.194,-3.1987,-3.1913,-3.1966,-3.2001,-3.194,-3.2011,-3.2013,-3.203,-3.2117,-3.2156,-3.2123,-3.23,-3.224,-3.2251,-3.2255,-3.2305,-3.2325,-3.2344,-3.2102,-3.2101,-3.21,0,0,-3.1989,-3.1996,-3.2064,-3.2076,-3.2093,-3.2082,-3.2098,-3.2105,-3.2104,-3.2174,-3.213,-3.2171,-3.224,-3.2255,-3.2271,-3.2413,-3.2378,-3.2425,-3.2508,-3.2561,-3.2578,-3.2593,-3.2645,-3.2663,-3.2436,-3.2436,-3.2437,0,-3.2063,-3.2132,-3.2102,-3.2159,-3.2179,-3.2125,-3.2194,-3.2207,-3.2235,-3.225,-3.2213,-3.2299,-3.2307,-3.2397,-3.2432,-3.2446,-3.2465,-3.2425,-3.2578,-3.2592,-3.2606,-3.2655,-3.2675,-3.2442,-3.2442,-3.2441,-3.244,0,-3.2223,-3.2271,-3.2324,-3.2352,-3.2378,-3.244,-3.242,-3.245,-3.2427,-3.242,-3.2493,-3.25,-3.2538,-3.2557,-3.2535,-3.2645,-3.2624,-3.2583,-3.2517,-3.2633,-3.2679,-3.2697,-3.2451,-3.2448,-3.2447,-3.2445,0,0,-3.2415,-3.2426,-3.2446,-3.2459,-3.2473,-3.251,-3.257,-3.2606,-3.2633,-3.2653,-3.2704,-3.2763,-3.2725,-3.2744,-3.2723,-3.2769,-3.2882,-3.2722,-3.2722,-3.2753,-3.3004,-3.3037,-3.3059,-3.2858,-3.2861,-3.2864,-3.3003,0,-3.2551,-3.2653,-3.2629,-3.273,-3.2776,-3.2725,-3.2777,-3.2792,-3.2787,-3.2825,-3.2819,-3.2863,-3.2808,-3.282,-3.2862,-3.2859,-3.2932,-3.2848,-3.2905,-3.2908,-3.2904,-3.3082,-3.3116,-3.3248,-3.3021,-3.3024,-3.3026,0,-3.2723,-3.2751,-3.2857,-3.2865,-3.2883,-3.293,-3.2961,-3.2998,-3.3014,-3.3007,-3.3028,-3.2998,-3.3058,-3.299,-3.3073,-3.3016,-3.3038,-3.304,-3.3044,-3.305,-3.2975,-3.3095,-3.3289,-3.3309,-3.3053,-3.3051,-3.3049,0,-3.2855,-3.2918,-3.299,-3.3002,-3.3013,-3.3047,-3.3053,-3.3065,-3.3089,-3.3116,-3.3131,-3.3165,-3.3184,-3.3211,-3.3192,-3.3144,-3.3278,-3.3208,-3.3275,-3.3276,-3.3307,-3.3306,-3.3509,-3.3318,-3.3318,-3.3318,-3.3317,0,-3.301,-3.3078,-3.305,-3.3095,-3.3169,-3.3139,-3.3214,-3.3214,-3.3225,-3.3269,-3.3227,-3.3269,-3.324,-3.328,-3.3265,-3.3336,-3.3345,-3.3342,-3.3337,-3.3347,-3.3347,-3.3362,-3.3353,-3.3323,-3.3322,-3.3321,-3.332,0,-3.3171,-3.3154,-3.323,-3.3233,-3.3236,-3.3291,-3.3293,-3.3335,-3.3327,-3.3383,-3.3395,-3.3382,-3.3427,-3.3409,-3.3457,-3.3447,-3.3539,-3.3521,-3.3534,-3.353,-3.3598,-3.3593,-3.3819,-3.3848,-3.3637,-3.3639,-3.3641,0,-3.3272,-3.3322,-3.3331,-3.3358,-3.3366,-3.3409,-3.3433,-3.3406,-3.3432,-3.3454,-3.3494,-3.3535,-3.3566,-3.3641,-3.3636,-3.3673,-3.3657,-3.3734,-3.3662,-3.367,-3.366,-3.3658,-3.3663,-3.3749,-3.3751,-3.3753,-3.3755,0,-3.3453,-3.3443,-3.3478,-3.3512,-3.3541,-3.3566,-3.3587,-3.3611,-3.3585,-3.3617,-3.3662,-3.3686,-3.3735,-3.3777,-3.381,-3.3816,-3.3782,-3.3777,-3.3795,-3.3806,-3.3811,-3.3811,-3.3575,-3.3772,-3.3771,-3.3769,-3.3768,-3.3768,-3.3588,-3.3631,-3.3644,-3.3685,-3.3698,-3.3719,-3.3759,-3.3755,-3.3792,-3.383,-3.3811,-3.3864,-3.3879,-3.3919,-3.393,-3.3971,-3.3941,-3.3967,-3.3973,-3.3981,-3.399,-3.3803,-3.3977,-3.3976,-3.3976,-3.3975,-3.3975,0,-3.3769,-3.3775,-3.3813,-3.3844,-3.3876,-3.384,-3.3861,-3.3891,-3.3938,-3.3955,-3.3987,-3.4039,-3.4079,-3.4078,-3.4115,-3.4149,-3.4134,-3.416,-3.4158,-3.416,-3.4014,-3.3996,-3.4171,-3.4171,-3.4171,-3.4171,-3.4171,-3.4171,-3.3867,-3.3938,-3.393,-3.4007,-3.4012,-3.4064,-3.4079,-3.4098,-3.4111,-3.4172,-3.4205,-3.4203,-3.4212,-3.425,-3.4286,-3.4284,-3.4301,-3.4333,-3.4326,-3.419,-3.417,-3.4152,-3.4135,-3.4336,-3.4336,-3.4468,-3.4469,-3.447]},{"header":{"parameterUnit":"m.s-1","parameterCategory":1,"la1":30.2991,"la2":30.254,"lo1":-89.0895,"lo2":-89.0444,"dy":0.0017,"dx":0.0017,"nx":28,"ny":28,"refTime":"2025-12-15T03:00:00:Z","depth":0,"parameterNumber":3,"parameterNumberName":"V-component_of_WINDS"},"data":[0,0,0,0,0,0,0,0,0,0,0,0,0,0,0,0,0,0,0,0,0,0,0,0,0,0,0,0,0,0,0,0,0,0,0,0,0,0,0,0,0,0,0,0,0,0,0,0,0,0,0,0,0,0,0,0,0,0,-3.7487,-3.7487,0,-3.75,-3.75,-3.75,-3.7467,-3.7466,-3.7465,-3.7464,-3.7475,-3.7477,-3.7478,0,0,0,0,0,0,0,0,0,0,0,0,0,-3.7434,-3.7435,-3.7487,-3.7487,-3.7488,-3.75,-3.75,-3.75,-3.7467,-3.7466,-3.7465,-3.7464,-3.7475,-3.7476,-3.7478,0,0,0,0,0,0,0,0,0,0,0,0,0,-3.7453,-3.7435,-3.7487,-3.7473,-3.7472,-3.75,-3.75,-3.75,-3.7468,-3.7466,-3.7465,-3.7463,-3.7474,-3.7476,-3.7478,-3.752,0,0,-3.7484,-3.7485,0,0,0,0,0,0,0,0,-3.7451,-3.7455,-3.7475,-3.7474,-3.7473,-3.748,-3.7485,-3.7507,-3.7468,-3.7469,-3.7464,-3.7462,-3.7478,-3.748,-3.7485,-3.7521,-3.7521,-3.7484,-3.7485,-3.7486,-3.7486,0,0,0,0,0,0,0,-3.745,-3.7454,-3.7492,-3.7475,-3.7474,-3.7465,-3.7466,-3.7489,-3.7482,-3.7469,-3.7467,-3.7469,-3.7477,-3.7484,-3.7485,-3.7521,-3.7484,-3.7486,-3.7487,-3.7487,-3.759,-3.7592,0,0,0,0,0,0,-3.7451,-3.7453,-3.7492,-3.7492,-3.7458,-3.7467,-3.7468,-3.7479,-3.7482,-3.7481,-3.747,-3.7467,-3.7481,-3.7483,-3.7486,-3.7534,-3.7486,-3.7488,-3.7489,-3.7589,-3.7591,-3.7592,0,0,0,0,0,0,-3.745,-3.7455,-3.7491,-3.7472,-3.7476,-3.747,-3.7482,-3.748,-3.7487,-3.7482,-3.7481,-3.7478,-3.748,-3.7483,-3.7512,-3.7534,-3.7488,-3.749,-3.7587,-3.7589,-3.7592,-3.7632,0,0,0,0,0,0,-3.7449,-3.7455,-3.7471,-3.7473,-3.7477,-3.7518,-3.7484,-3.7482,-3.749,-3.7487,-3.7489,-3.7488,-3.7479,-3.7509,-3.7513,-3.7536,-3.7492,-3.7585,-3.7588,-3.7591,-3.7628,-3.7635,-3.7641,0,0,0,0,0,-3.7447,-3.7482,-3.7472,-3.7477,-3.7498,-3.7519,-3.7522,-3.7511,-3.7492,-3.7508,-3.7505,-3.7488,-3.7531,-3.7512,-3.7517,-3.754,-3.7583,-3.7587,-3.7591,-3.7626,-3.7634,-3.7641,0,0,0,0,0,0,-3.7483,-3.7482,-3.7471,-3.7508,-3.7514,-3.7514,-3.7534,-3.752,-3.7531,-3.7527,-3.7513,-3.7514,-3.7545,-3.7545,-3.7524,-3.758,-3.7554,-3.7559,-3.7579,-3.7587,-3.7593,-3.7592,-3.7493,0,0,0,0,0,-3.7495,-3.7513,-3.7511,-3.7544,-3.7547,-3.754,-3.7549,-3.754,-3.7545,-3.7548,-3.7547,-3.7553,-3.7567,-3.7577,-3.759,-3.7628,-3.7628,-3.7647,-3.7653,-3.7658,-3.7662,-3.7682,-3.769,-3.7604,-3.7604,-3.7604,0,0,-3.752,-3.7522,-3.7534,-3.7551,-3.7554,-3.7573,-3.7542,-3.7563,-3.7576,-3.7551,-3.7578,-3.7577,-3.7582,-3.7616,-3.7631,-3.7617,-3.7686,-3.7663,-3.7667,-3.7668,-3.7686,-3.7694,-3.7702,-3.7607,-3.7606,-3.7606,0,0,-3.7576,-3.7579,-3.7606,-3.7611,-3.7616,-3.7611,-3.7618,-3.762,-3.7618,-3.7645,-3.7626,-3.7641,-3.7667,-3.7671,-3.7677,-3.7733,-3.7718,-3.7738,-3.7771,-3.779,-3.7797,-3.7803,-3.7822,-3.7829,-3.7742,-3.7742,-3.7742,0,-3.7606,-3.7634,-3.7622,-3.7644,-3.7651,-3.7629,-3.7656,-3.766,-3.767,-3.7676,-3.7661,-3.7692,-3.7694,-3.7727,-3.7741,-3.7747,-3.7753,-3.7737,-3.7797,-3.7803,-3.7808,-3.7826,-3.7834,-3.7744,-3.7744,-3.7744,-3.7744,0,-3.7671,-3.769,-3.7711,-3.7721,-3.7731,-3.7755,-3.7746,-3.7757,-3.7747,-3.7744,-3.7771,-3.7772,-3.7785,-3.7792,-3.7783,-3.7825,-3.7816,-3.7799,-3.7772,-3.7819,-3.7835,-3.7842,-3.7748,-3.7747,-3.7746,-3.7746,0,0,-3.7749,-3.7752,-3.776,-3.7764,-3.7769,-3.7783,-3.7806,-3.7819,-3.7828,-3.7835,-3.7854,-3.7876,-3.786,-3.7866,-3.7857,-3.7874,-3.7917,-3.7855,-3.7854,-3.7866,-3.7962,-3.7975,-3.7983,-3.7907,-3.7908,-3.7909,-3.7962,0,-3.7803,-3.7843,-3.7833,-3.7872,-3.7889,-3.7868,-3.7887,-3.7892,-3.7889,-3.7903,-3.7899,-3.7914,-3.7893,-3.7896,-3.7912,-3.7909,-3.7936,-3.7905,-3.7923,-3.7924,-3.7922,-3.7992,-3.8005,-3.8055,-3.7968,-3.797,-3.797,0,-3.7872,-3.7882,-3.7923,-3.7924,-3.7931,-3.7949,-3.7959,-3.7973,-3.7977,-3.7974,-3.7981,-3.7968,-3.7989,-3.7963,-3.7992,-3.7971,-3.7977,-3.7977,-3.7979,-3.7979,-3.795,-3.7994,-3.807,-3.8077,-3.7981,-3.798,-3.7979,0,-3.7924,-3.7948,-3.7975,-3.798,-3.7982,-3.7995,-3.7996,-3.7999,-3.8007,-3.8016,-3.8021,-3.8032,-3.8039,-3.8047,-3.8038,-3.8019,-3.8068,-3.8041,-3.8065,-3.8065,-3.8076,-3.8075,-3.8154,-3.8082,-3.8081,-3.8081,-3.8081,0,-3.7985,-3.8011,-3.7999,-3.8016,-3.8044,-3.8031,-3.8059,-3.8058,-3.806,-3.8076,-3.8058,-3.8073,-3.806,-3.8073,-3.8066,-3.8091,-3.8094,-3.8091,-3.8089,-3.8092,-3.8093,-3.8096,-3.8092,-3.8083,-3.8083,-3.8082,-3.8082,0,-3.8049,-3.8042,-3.807,-3.8069,-3.807,-3.809,-3.809,-3.8105,-3.81,-3.812,-3.8124,-3.8117,-3.8132,-3.8123,-3.8139,-3.8133,-3.8166,-3.8159,-3.8164,-3.8162,-3.8187,-3.8185,-3.827,-3.828,-3.8202,-3.8203,-3.8203,0,-3.8088,-3.8107,-3.8109,-3.8118,-3.8121,-3.8136,-3.8144,-3.8132,-3.8141,-3.8147,-3.8162,-3.8175,-3.8185,-3.821,-3.8206,-3.8217,-3.821,-3.8239,-3.8212,-3.8215,-3.821,-3.8209,-3.821,-3.8245,-3.8246,-3.8247,-3.8247,0,-3.8158,-3.8154,-3.8166,-3.8177,-3.8188,-3.8196,-3.8202,-3.8211,-3.8199,-3.821,-3.8225,-3.8233,-3.8249,-3.8262,-3.8271,-3.8272,-3.8258,-3.8256,-3.8262,-3.8266,-3.8268,-3.8266,-3.8179,-3.8254,-3.8253,-3.8253,-3.8252,-3.8252,-3.821,-3.8226,-3.8229,-3.8244,-3.8247,-3.8254,-3.8268,-3.8265,-3.8278,-3.8289,-3.8282,-3.8299,-3.8302,-3.8314,-3.8316,-3.833,-3.8318,-3.8327,-3.8329,-3.8331,-3.8334,-3.8266,-3.8331,-3.8331,-3.8331,-3.8331,-3.8331,0,-3.8279,-3.828,-3.8293,-3.8303,-3.8314,-3.83,-3.8306,-3.8316,-3.8332,-3.8336,-3.8347,-3.8364,-3.8376,-3.8373,-3.8385,-3.8396,-3.8389,-3.8399,-3.8398,-3.8398,-3.8345,-3.8338,-3.8404,-3.8404,-3.8404,-3.8404,-3.8404,-3.8404,-3.8316,-3.8342,-3.8337,-3.8364,-3.8365,-3.8382,-3.8387,-3.8393,-3.8396,-3.8416,-3.8427,-3.8424,-3.8426,-3.8437,-3.8448,-3.8446,-3.8451,-3.8463,-3.8459,-3.8409,-3.8402,-3.8395,-3.8389,-3.8464,-3.8464,-3.8511,-3.8512,-3.8512]}]]